owner,sensor,date,latitude,longitude,air_pressure(mBar),qcFlag 
TABS,ioos:station:wmo:42046:1,2013-11-01T00:00:00Z,27.8903,-94.0367,1011.39,11111222 
TABS,ioos:station:wmo:42046:1,2013-11-01T00:30:00Z,27.8903,-94.0367,1011.38,11111222 
TABS,ioos:station:wmo:42046:1,2013-11-01T01:00:00Z,27.8903,-94.0367,1011.31,11111222 
TABS,ioos:station:wmo:42046:1,2013-11-01T01:30:00Z,27.8903,-94.0367,1011.63,11111222 
TABS,ioos:station:wmo:42046:1,2013-11-01T02:00:00Z,27.8903,-94.0367,1011.55,11111222 
TABS,ioos:station:wmo:42046:1,2013-11-01T02:30:00Z,27.8903,-94.0367,1011.44,11111222 
TABS,ioos:station:wmo:42046:1,2013-11-01T03:00:00Z,27.8903,-94.0367,1011.55,11111222 
TABS,ioos:station:wmo:42046:1,2013-11-01T03:30:00Z,27.8903,-94.0367,1011.83,11111222 
TABS,ioos:station:wmo:42046:1,2013-11-01T04:00:00Z,27.8903,-94.0367,1012.05,11111222 
TABS,ioos:station:wmo:42046:1,2013-11-01T04:30:00Z,27.8903,-94.0367,1012.0,11111222 
TABS,ioos:station:wmo:42046:1,2013-11-01T05:00:00Z,27.8903,-94.0367,1012.19,11111222 
TABS,ioos:station:wmo:42046:1,2013-11-01T05:30:00Z,27.8903,-94.0367,1012.27,11111222 
TABS,ioos:station:wmo:42046:1,2013-11-01T06:00:00Z,27.8903,-94.0367,1012.14,11111222 
TABS,ioos:station:wmo:42046:1,2013-11-01T06:30:00Z,27.8903,-94.0367,1011.51,11111222 
TABS,ioos:station:wmo:42046:1,2013-11-01T07:00:00Z,27.8903,-94.0367,1011.96,11111222 
TABS,ioos:station:wmo:42046:1,2013-11-01T07:30:00Z,27.8903,-94.0367,1011.38,11111222 
TABS,ioos:station:wmo:42046:1,2013-11-01T08:00:00Z,27.8903,-94.0367,1011.38,11111222 
TABS,ioos:station:wmo:42046:1,2013-11-01T08:30:00Z,27.8903,-94.0367,1011.64,11111222 
TABS,ioos:station:wmo:42046:1,2013-11-01T09:00:00Z,27.8903,-94.0367,1011.57,11111222 
TABS,ioos:station:wmo:42046:1,2013-11-01T09:30:00Z,27.8903,-94.0367,1011.29,11111222 
TABS,ioos:station:wmo:42046:1,2013-11-01T10:00:00Z,27.8903,-94.0367,1011.41,11111222 
TABS,ioos:station:wmo:42046:1,2013-11-01T10:30:00Z,27.8903,-94.0367,1011.29,11111222 
TABS,ioos:station:wmo:42046:1,2013-11-01T11:00:00Z,27.8903,-94.0367,1011.32,11111222 
TABS,ioos:station:wmo:42046:1,2013-11-01T11:30:00Z,27.8903,-94.0367,1011.7,11111222 
TABS,ioos:station:wmo:42046:1,2013-11-01T12:00:00Z,27.8903,-94.0367,1011.66,11111222 
TABS,ioos:station:wmo:42046:1,2013-11-01T12:30:00Z,27.8903,-94.0367,1012.06,11111222 
TABS,ioos:station:wmo:42046:1,2013-11-01T13:00:00Z,27.8903,-94.0367,1012.72,11111222 
TABS,ioos:station:wmo:42046:1,2013-11-01T13:30:00Z,27.8903,-94.0367,1012.81,11111222 
TABS,ioos:station:wmo:42046:1,2013-11-01T14:00:00Z,27.8903,-94.0367,1012.91,11111222 
TABS,ioos:station:wmo:42046:1,2013-11-01T14:30:00Z,27.8903,-94.0367,1013.5,11111222 
TABS,ioos:station:wmo:42046:1,2013-11-01T15:00:00Z,27.8903,-94.0367,1013.72,11111222 
TABS,ioos:station:wmo:42046:1,2013-11-01T15:30:00Z,27.8903,-94.0367,1014.09,11111222 
TABS,ioos:station:wmo:42046:1,2013-11-01T16:00:00Z,27.8903,-94.0367,1014.17,11111222 
TABS,ioos:station:wmo:42046:1,2013-11-01T16:30:00Z,27.8903,-94.0367,1014.0,11111222 
TABS,ioos:station:wmo:42046:1,2013-11-01T17:00:00Z,27.8903,-94.0367,1013.79,11111222 
TABS,ioos:station:wmo:42046:1,2013-11-01T17:30:00Z,27.8903,-94.0367,1013.34,11111222 
TABS,ioos:station:wmo:42046:1,2013-11-01T18:00:00Z,27.8903,-94.0367,1012.87,11111222 
TABS,ioos:station:wmo:42046:1,2013-11-01T18:30:00Z,27.8903,-94.0367,1012.49,11111222 
TABS,ioos:station:wmo:42046:1,2013-11-01T19:00:00Z,27.8903,-94.0367,1012.07,11111222 
TABS,ioos:station:wmo:42046:1,2013-11-01T19:30:00Z,27.8903,-94.0367,1011.81,11111222 
TABS,ioos:station:wmo:42046:1,2013-11-01T20:00:00Z,27.8903,-94.0367,1011.52,11111222 
TABS,ioos:station:wmo:42046:1,2013-11-01T20:30:00Z,27.8903,-94.0367,1011.31,11111222 
TABS,ioos:station:wmo:42046:1,2013-11-01T21:00:00Z,27.8903,-94.0367,1011.04,11111222 
TABS,ioos:station:wmo:42046:1,2013-11-01T21:30:00Z,27.8903,-94.0367,1011.07,11111222 
TABS,ioos:station:wmo:42046:1,2013-11-01T22:00:00Z,27.8903,-94.0367,1011.1,11111222 
TABS,ioos:station:wmo:42046:1,2013-11-01T22:30:00Z,27.8903,-94.0367,1011.15,11111222 
TABS,ioos:station:wmo:42046:1,2013-11-01T23:00:00Z,27.8903,-94.0367,1011.47,11111222 
TABS,ioos:station:wmo:42046:1,2013-11-01T23:30:00Z,27.8903,-94.0367,1011.81,11111222 
TABS,ioos:station:wmo:42046:1,2013-11-02T00:00:00Z,27.8903,-94.0367,1011.75,11111222 
TABS,ioos:station:wmo:42046:1,2013-11-02T00:30:00Z,27.8903,-94.0367,1012.09,11111222 
TABS,ioos:station:wmo:42046:1,2013-11-02T01:00:00Z,27.8903,-94.0367,1012.33,11111222 
TABS,ioos:station:wmo:42046:1,2013-11-02T01:30:00Z,27.8903,-94.0367,1012.66,11111222 
TABS,ioos:station:wmo:42046:1,2013-11-02T02:00:00Z,27.8903,-94.0367,1013.03,11111222 
TABS,ioos:station:wmo:42046:1,2013-11-02T02:30:00Z,27.8903,-94.0367,1013.16,11111222 
TABS,ioos:station:wmo:42046:1,2013-11-02T03:00:00Z,27.8903,-94.0367,1013.33,11111222 
TABS,ioos:station:wmo:42046:1,2013-11-02T03:30:00Z,27.8903,-94.0367,1013.68,11111222 
TABS,ioos:station:wmo:42046:1,2013-11-02T04:00:00Z,27.8903,-94.0367,1014.23,11111222 
TABS,ioos:station:wmo:42046:1,2013-11-02T04:30:00Z,27.8903,-94.0367,1014.02,11111222 
TABS,ioos:station:wmo:42046:1,2013-11-02T05:00:00Z,27.8903,-94.0367,1014.02,11111222 
TABS,ioos:station:wmo:42046:1,2013-11-02T05:30:00Z,27.8903,-94.0367,1013.98,11111222 
TABS,ioos:station:wmo:42046:1,2013-11-02T06:00:00Z,27.8903,-94.0367,1014.17,11111222 
TABS,ioos:station:wmo:42046:1,2013-11-02T06:30:00Z,27.8903,-94.0367,1014.79,11111222 
TABS,ioos:station:wmo:42046:1,2013-11-02T07:00:00Z,27.8903,-94.0367,1014.12,11111222 
TABS,ioos:station:wmo:42046:1,2013-11-02T07:30:00Z,27.8903,-94.0367,1014.25,11111222 
TABS,ioos:station:wmo:42046:1,2013-11-02T08:00:00Z,27.8903,-94.0367,1014.77,11111222 
TABS,ioos:station:wmo:42046:1,2013-11-02T08:30:00Z,27.8903,-94.0367,1014.85,11111222 
TABS,ioos:station:wmo:42046:1,2013-11-02T09:00:00Z,27.8903,-94.0367,1014.92,11111222 
TABS,ioos:station:wmo:42046:1,2013-11-02T09:30:00Z,27.8903,-94.0367,1014.45,11111222 
TABS,ioos:station:wmo:42046:1,2013-11-02T10:00:00Z,27.8903,-94.0367,1015.2,11111222 
TABS,ioos:station:wmo:42046:1,2013-11-02T10:30:00Z,27.8903,-94.0367,1015.8,11111222 
TABS,ioos:station:wmo:42046:1,2013-11-02T11:00:00Z,27.8903,-94.0367,1015.71,11111222 
TABS,ioos:station:wmo:42046:1,2013-11-02T11:30:00Z,27.8903,-94.0367,1016.26,11111222 
TABS,ioos:station:wmo:42046:1,2013-11-02T12:00:00Z,27.8903,-94.0367,1016.46,11111222 
TABS,ioos:station:wmo:42046:1,2013-11-02T12:30:00Z,27.8903,-94.0367,1016.69,11111222 
TABS,ioos:station:wmo:42046:1,2013-11-02T13:00:00Z,27.8903,-94.0367,1017.07,11111222 
TABS,ioos:station:wmo:42046:1,2013-11-02T13:30:00Z,27.8903,-94.0367,1017.51,11111222 
TABS,ioos:station:wmo:42046:1,2013-11-02T14:00:00Z,27.8903,-94.0367,1018.37,11111222 
TABS,ioos:station:wmo:42046:1,2013-11-02T14:30:00Z,27.8903,-94.0367,1018.8,11111222 
TABS,ioos:station:wmo:42046:1,2013-11-02T15:00:00Z,27.8903,-94.0367,1019.3,11111222 
TABS,ioos:station:wmo:42046:1,2013-11-02T15:30:00Z,27.8903,-94.0367,1019.7,11111222 
TABS,ioos:station:wmo:42046:1,2013-11-02T16:00:00Z,27.8903,-94.0367,1019.77,11111222 
TABS,ioos:station:wmo:42046:1,2013-11-02T16:30:00Z,27.8903,-94.0367,1020.12,11111222 
TABS,ioos:station:wmo:42046:1,2013-11-02T17:00:00Z,27.8903,-94.0367,1020.04,11111222 
TABS,ioos:station:wmo:42046:1,2013-11-02T17:30:00Z,27.8903,-94.0367,1019.91,11111222 
TABS,ioos:station:wmo:42046:1,2013-11-02T18:00:00Z,27.8903,-94.0367,1019.89,11111222 
TABS,ioos:station:wmo:42046:1,2013-11-02T18:30:00Z,27.8903,-94.0367,1019.12,11111222 
TABS,ioos:station:wmo:42046:1,2013-11-02T19:00:00Z,27.8903,-94.0367,1019.07,11111222 
TABS,ioos:station:wmo:42046:1,2013-11-02T19:30:00Z,27.8903,-94.0367,1018.84,11111222 
TABS,ioos:station:wmo:42046:1,2013-11-02T20:00:00Z,27.8903,-94.0367,1018.67,11111222 
TABS,ioos:station:wmo:42046:1,2013-11-02T20:30:00Z,27.8903,-94.0367,1018.44,11111222 
TABS,ioos:station:wmo:42046:1,2013-11-02T21:00:00Z,27.8903,-94.0367,1018.67,11111222 
TABS,ioos:station:wmo:42046:1,2013-11-02T21:30:00Z,27.8903,-94.0367,1018.86,11111222 
TABS,ioos:station:wmo:42046:1,2013-11-02T22:00:00Z,27.8903,-94.0367,1018.94,11111222 
TABS,ioos:station:wmo:42046:1,2013-11-02T22:30:00Z,27.8903,-94.0367,1019.36,11111222 
TABS,ioos:station:wmo:42046:1,2013-11-02T23:00:00Z,27.8903,-94.0367,1019.3,11111222 
TABS,ioos:station:wmo:42046:1,2013-11-02T23:30:00Z,27.8903,-94.0367,1019.81,11111222 
TABS,ioos:station:wmo:42046:1,2013-11-03T00:00:00Z,27.8903,-94.0367,1020.46,11111222 
TABS,ioos:station:wmo:42046:1,2013-11-03T00:30:00Z,27.8903,-94.0367,1020.57,11111222 
TABS,ioos:station:wmo:42046:1,2013-11-03T01:00:00Z,27.8903,-94.0367,1020.75,11111222 
TABS,ioos:station:wmo:42046:1,2013-11-03T01:30:00Z,27.8903,-94.0367,1021.16,11111222 
TABS,ioos:station:wmo:42046:1,2013-11-03T02:00:00Z,27.8903,-94.0367,1021.4,11111222 
TABS,ioos:station:wmo:42046:1,2013-11-03T02:30:00Z,27.8903,-94.0367,1021.57,11111222 
TABS,ioos:station:wmo:42046:1,2013-11-03T03:00:00Z,27.8903,-94.0367,1021.65,11111222 
TABS,ioos:station:wmo:42046:1,2013-11-03T03:30:00Z,27.8903,-94.0367,1021.69,11111222 
TABS,ioos:station:wmo:42046:1,2013-11-03T04:00:00Z,27.8903,-94.0367,1021.57,11111222 
TABS,ioos:station:wmo:42046:1,2013-11-03T04:30:00Z,27.8903,-94.0367,1021.59,11111222 
TABS,ioos:station:wmo:42046:1,2013-11-03T05:00:00Z,27.8903,-94.0367,1021.42,11111222 
TABS,ioos:station:wmo:42046:1,2013-11-03T05:30:00Z,27.8903,-94.0367,1021.46,11111222 
TABS,ioos:station:wmo:42046:1,2013-11-03T06:00:00Z,27.8903,-94.0367,1021.16,11111222 
TABS,ioos:station:wmo:42046:1,2013-11-03T06:30:00Z,27.8903,-94.0367,1021.15,11111222 
TABS,ioos:station:wmo:42046:1,2013-11-03T07:00:00Z,27.8903,-94.0367,1021.2,11111222 
TABS,ioos:station:wmo:42046:1,2013-11-03T07:30:00Z,27.8903,-94.0367,1021.11,11111222 
TABS,ioos:station:wmo:42046:1,2013-11-03T08:00:00Z,27.8903,-94.0367,1020.74,11111222 
TABS,ioos:station:wmo:42046:1,2013-11-03T08:30:00Z,27.8903,-94.0367,1020.75,11111222 
TABS,ioos:station:wmo:42046:1,2013-11-03T09:00:00Z,27.8903,-94.0367,1020.58,11111222 
TABS,ioos:station:wmo:42046:1,2013-11-03T09:30:00Z,27.8903,-94.0367,1020.83,11111222 
TABS,ioos:station:wmo:42046:1,2013-11-03T10:00:00Z,27.8903,-94.0367,1020.77,11111222 
TABS,ioos:station:wmo:42046:1,2013-11-03T10:30:00Z,27.8903,-94.0367,1020.88,11111222 
TABS,ioos:station:wmo:42046:1,2013-11-03T11:00:00Z,27.8903,-94.0367,1020.94,11111222 
TABS,ioos:station:wmo:42046:1,2013-11-03T11:30:00Z,27.8903,-94.0367,1020.81,11111222 
TABS,ioos:station:wmo:42046:1,2013-11-03T12:00:00Z,27.8903,-94.0367,1020.94,11111222 
TABS,ioos:station:wmo:42046:1,2013-11-03T12:30:00Z,27.8903,-94.0367,1021.12,11111222 
TABS,ioos:station:wmo:42046:1,2013-11-03T13:00:00Z,27.8903,-94.0367,1020.95,11111222 
TABS,ioos:station:wmo:42046:1,2013-11-03T13:30:00Z,27.8903,-94.0367,1021.12,11111222 
TABS,ioos:station:wmo:42046:1,2013-11-03T14:00:00Z,27.8903,-94.0367,1021.48,11111222 
TABS,ioos:station:wmo:42046:1,2013-11-03T14:30:00Z,27.8903,-94.0367,1021.65,11111222 
TABS,ioos:station:wmo:42046:1,2013-11-03T15:00:00Z,27.8903,-94.0367,1021.7,11111222 
TABS,ioos:station:wmo:42046:1,2013-11-03T15:30:00Z,27.8903,-94.0367,1021.9,11111222 
TABS,ioos:station:wmo:42046:1,2013-11-03T16:00:00Z,27.8903,-94.0367,1021.59,11111222 
TABS,ioos:station:wmo:42046:1,2013-11-03T16:30:00Z,27.8903,-94.0367,1021.34,11111222 
TABS,ioos:station:wmo:42046:1,2013-11-03T17:00:00Z,27.8903,-94.0367,1021.0,11111222 
TABS,ioos:station:wmo:42046:1,2013-11-03T17:30:00Z,27.8903,-94.0367,1020.64,11111222 
TABS,ioos:station:wmo:42046:1,2013-11-03T18:00:00Z,27.8903,-94.0367,1020.21,11111222 
TABS,ioos:station:wmo:42046:1,2013-11-03T18:30:00Z,27.8903,-94.0367,1019.73,11111222 
TABS,ioos:station:wmo:42046:1,2013-11-03T19:00:00Z,27.8903,-94.0367,1019.31,11111222 
TABS,ioos:station:wmo:42046:1,2013-11-03T19:30:00Z,27.8903,-94.0367,1018.99,11111222 
TABS,ioos:station:wmo:42046:1,2013-11-03T20:00:00Z,27.8903,-94.0367,1018.72,11111222 
TABS,ioos:station:wmo:42046:1,2013-11-03T20:30:00Z,27.8903,-94.0367,1018.56,11111222 
TABS,ioos:station:wmo:42046:1,2013-11-03T21:00:00Z,27.8903,-94.0367,1018.58,11111222 
TABS,ioos:station:wmo:42046:1,2013-11-03T21:30:00Z,27.8903,-94.0367,1018.46,11111222 
TABS,ioos:station:wmo:42046:1,2013-11-03T22:00:00Z,27.8903,-94.0367,1018.52,11111222 
TABS,ioos:station:wmo:42046:1,2013-11-03T22:30:00Z,27.8903,-94.0367,1018.43,11111222 
TABS,ioos:station:wmo:42046:1,2013-11-03T23:00:00Z,27.8903,-94.0367,1018.51,11111222 
TABS,ioos:station:wmo:42046:1,2013-11-03T23:30:00Z,27.8903,-94.0367,1018.54,11111222 
TABS,ioos:station:wmo:42046:1,2013-11-04T00:00:00Z,27.8903,-94.0367,1018.9,11111222 
TABS,ioos:station:wmo:42046:1,2013-11-04T00:30:00Z,27.8903,-94.0367,1019.02,11111222 
TABS,ioos:station:wmo:42046:1,2013-11-04T01:00:00Z,27.8903,-94.0367,1019.41,11111222 
TABS,ioos:station:wmo:42046:1,2013-11-04T01:30:00Z,27.8903,-94.0367,1019.43,11111222 
TABS,ioos:station:wmo:42046:1,2013-11-04T02:00:00Z,27.8903,-94.0367,1019.48,11111222 
TABS,ioos:station:wmo:42046:1,2013-11-04T02:30:00Z,27.8903,-94.0367,1019.74,11111222 
TABS,ioos:station:wmo:42046:1,2013-11-04T03:00:00Z,27.8903,-94.0367,1019.44,11111222 
TABS,ioos:station:wmo:42046:1,2013-11-04T03:30:00Z,27.8903,-94.0367,1019.06,11111222 
TABS,ioos:station:wmo:42046:1,2013-11-04T04:00:00Z,27.8903,-94.0367,1018.83,11111222 
TABS,ioos:station:wmo:42046:1,2013-11-04T04:30:00Z,27.8903,-94.0367,1018.65,11111222 
TABS,ioos:station:wmo:42046:1,2013-11-04T05:00:00Z,27.8903,-94.0367,1018.27,11111222 
TABS,ioos:station:wmo:42046:1,2013-11-04T05:30:00Z,27.8903,-94.0367,1018.01,11111222 
TABS,ioos:station:wmo:42046:1,2013-11-04T06:00:00Z,27.8903,-94.0367,1017.98,11111222 
TABS,ioos:station:wmo:42046:1,2013-11-04T06:30:00Z,27.8903,-94.0367,1017.7,11111222 
TABS,ioos:station:wmo:42046:1,2013-11-04T07:00:00Z,27.8903,-94.0367,1017.28,11111222 
TABS,ioos:station:wmo:42046:1,2013-11-04T07:30:00Z,27.8903,-94.0367,1016.77,11111222 
TABS,ioos:station:wmo:42046:1,2013-11-04T08:00:00Z,27.8903,-94.0367,1016.79,11111222 
TABS,ioos:station:wmo:42046:1,2013-11-04T08:30:00Z,27.8903,-94.0367,1016.74,11111222 
TABS,ioos:station:wmo:42046:1,2013-11-04T09:00:00Z,27.8903,-94.0367,1017.03,11111222 
TABS,ioos:station:wmo:42046:1,2013-11-04T09:30:00Z,27.8903,-94.0367,1016.98,11111222 
TABS,ioos:station:wmo:42046:1,2013-11-04T10:00:00Z,27.8903,-94.0367,1016.88,11111222 
TABS,ioos:station:wmo:42046:1,2013-11-04T10:30:00Z,27.8903,-94.0367,1016.78,11111222 
TABS,ioos:station:wmo:42046:1,2013-11-04T11:00:00Z,27.8903,-94.0367,1016.8,11111222 
TABS,ioos:station:wmo:42046:1,2013-11-04T11:30:00Z,27.8903,-94.0367,1016.77,11111222 
TABS,ioos:station:wmo:42046:1,2013-11-04T12:00:00Z,27.8903,-94.0367,1017.13,11111222 
TABS,ioos:station:wmo:42046:1,2013-11-04T12:30:00Z,27.8903,-94.0367,1017.48,11111222 
TABS,ioos:station:wmo:42046:1,2013-11-04T13:00:00Z,27.8903,-94.0367,1017.61,11111222 
TABS,ioos:station:wmo:42046:1,2013-11-04T13:30:00Z,27.8903,-94.0367,1017.84,11111222 
TABS,ioos:station:wmo:42046:1,2013-11-04T14:00:00Z,27.8903,-94.0367,1018.14,11111222 
TABS,ioos:station:wmo:42046:1,2013-11-04T14:30:00Z,27.8903,-94.0367,1018.43,11111222 
TABS,ioos:station:wmo:42046:1,2013-11-04T15:00:00Z,27.8903,-94.0367,1018.65,11111222 
TABS,ioos:station:wmo:42046:1,2013-11-04T15:30:00Z,27.8903,-94.0367,1018.88,11111222 
TABS,ioos:station:wmo:42046:1,2013-11-04T16:00:00Z,27.8903,-94.0367,1018.94,11111222 
TABS,ioos:station:wmo:42046:1,2013-11-04T16:30:00Z,27.8903,-94.0367,1018.67,11111222 
TABS,ioos:station:wmo:42046:1,2013-11-04T17:00:00Z,27.8903,-94.0367,1018.25,11111222 
TABS,ioos:station:wmo:42046:1,2013-11-04T17:30:00Z,27.8903,-94.0367,1017.98,11111222 
TABS,ioos:station:wmo:42046:1,2013-11-04T18:00:00Z,27.8903,-94.0367,1017.59,11111222 
TABS,ioos:station:wmo:42046:1,2013-11-04T18:30:00Z,27.8903,-94.0367,1017.15,11111222 
TABS,ioos:station:wmo:42046:1,2013-11-04T19:00:00Z,27.8903,-94.0367,1016.72,11111222 
TABS,ioos:station:wmo:42046:1,2013-11-04T19:30:00Z,27.8903,-94.0367,1016.51,11111222 
TABS,ioos:station:wmo:42046:1,2013-11-04T20:00:00Z,27.8903,-94.0367,1016.32,11111222 
TABS,ioos:station:wmo:42046:1,2013-11-04T20:30:00Z,27.8903,-94.0367,1016.21,11111222 
TABS,ioos:station:wmo:42046:1,2013-11-04T21:00:00Z,27.8903,-94.0367,1015.93,11111222 
TABS,ioos:station:wmo:42046:1,2013-11-04T21:30:00Z,27.8903,-94.0367,1015.54,11111222 
TABS,ioos:station:wmo:42046:1,2013-11-04T22:00:00Z,27.8903,-94.0367,1015.64,11111222 
TABS,ioos:station:wmo:42046:1,2013-11-04T22:30:00Z,27.8903,-94.0367,1016.11,11111222 
TABS,ioos:station:wmo:42046:1,2013-11-04T23:00:00Z,27.8903,-94.0367,1016.31,11111222 
TABS,ioos:station:wmo:42046:1,2013-11-04T23:30:00Z,27.8903,-94.0367,1016.16,11111222 
TABS,ioos:station:wmo:42046:1,2013-11-05T00:00:00Z,27.8903,-94.0367,1016.61,11111222 
TABS,ioos:station:wmo:42046:1,2013-11-05T00:30:00Z,27.8903,-94.0367,1016.92,11111222 
TABS,ioos:station:wmo:42046:1,2013-11-05T01:00:00Z,27.8903,-94.0367,1016.83,11111222 
TABS,ioos:station:wmo:42046:1,2013-11-05T01:30:00Z,27.8903,-94.0367,1016.78,11111222 
TABS,ioos:station:wmo:42046:1,2013-11-05T02:00:00Z,27.8903,-94.0367,1017.07,11111222 
TABS,ioos:station:wmo:42046:1,2013-11-05T02:30:00Z,27.8903,-94.0367,1017.29,11111222 
TABS,ioos:station:wmo:42046:1,2013-11-05T03:00:00Z,27.8903,-94.0367,1017.41,11111222 
TABS,ioos:station:wmo:42046:1,2013-11-05T03:30:00Z,27.8903,-94.0367,1016.91,11111222 
TABS,ioos:station:wmo:42046:1,2013-11-05T04:00:00Z,27.8903,-94.0367,1017.35,11111222 
TABS,ioos:station:wmo:42046:1,2013-11-05T04:30:00Z,27.8903,-94.0367,1016.93,11111222 
TABS,ioos:station:wmo:42046:1,2013-11-05T05:00:00Z,27.8903,-94.0367,1016.95,11111222 
TABS,ioos:station:wmo:42046:1,2013-11-05T05:30:00Z,27.8903,-94.0367,1016.9,11111222 
TABS,ioos:station:wmo:42046:1,2013-11-05T06:00:00Z,27.8903,-94.0367,1016.79,11111222 
TABS,ioos:station:wmo:42046:1,2013-11-05T06:30:00Z,27.8903,-94.0367,1017.2,11111222 
TABS,ioos:station:wmo:42046:1,2013-11-05T07:00:00Z,27.8903,-94.0367,1016.9,11111222 
TABS,ioos:station:wmo:42046:1,2013-11-05T07:30:00Z,27.8903,-94.0367,1016.76,11111222 
TABS,ioos:station:wmo:42046:1,2013-11-05T08:00:00Z,27.8903,-94.0367,1015.87,11111222 
TABS,ioos:station:wmo:42046:1,2013-11-05T08:30:00Z,27.8903,-94.0367,1015.9,11111222 
TABS,ioos:station:wmo:42046:1,2013-11-05T09:00:00Z,27.8903,-94.0367,1015.98,11111222 
TABS,ioos:station:wmo:42046:1,2013-11-05T09:30:00Z,27.8903,-94.0367,1016.09,11111222 
TABS,ioos:station:wmo:42046:1,2013-11-05T10:00:00Z,27.8903,-94.0367,1016.06,11111222 
TABS,ioos:station:wmo:42046:1,2013-11-05T10:30:00Z,27.8903,-94.0367,1016.02,11111222 
TABS,ioos:station:wmo:42046:1,2013-11-05T11:00:00Z,27.8903,-94.0367,1015.96,11111222 
TABS,ioos:station:wmo:42046:1,2013-11-05T11:30:00Z,27.8903,-94.0367,1016.11,11111222 
TABS,ioos:station:wmo:42046:1,2013-11-05T12:00:00Z,27.8903,-94.0367,1016.2,11111222 
TABS,ioos:station:wmo:42046:1,2013-11-05T12:30:00Z,27.8903,-94.0367,1016.5,11111222 
TABS,ioos:station:wmo:42046:1,2013-11-05T13:00:00Z,27.8903,-94.0367,1016.43,11111222 
TABS,ioos:station:wmo:42046:1,2013-11-05T13:30:00Z,27.8903,-94.0367,1017.16,11111222 
TABS,ioos:station:wmo:42046:1,2013-11-05T14:00:00Z,27.8903,-94.0367,1017.49,11111222 
TABS,ioos:station:wmo:42046:1,2013-11-05T14:30:00Z,27.8903,-94.0367,1017.85,11111222 
TABS,ioos:station:wmo:42046:1,2013-11-05T15:00:00Z,27.8903,-94.0367,1018.02,11111222 
TABS,ioos:station:wmo:42046:1,2013-11-05T15:30:00Z,27.8903,-94.0367,1018.22,11111222 
TABS,ioos:station:wmo:42046:1,2013-11-05T16:00:00Z,27.8903,-94.0367,1018.21,11111222 
TABS,ioos:station:wmo:42046:1,2013-11-05T16:30:00Z,27.8903,-94.0367,1017.61,11111222 
TABS,ioos:station:wmo:42046:1,2013-11-05T17:00:00Z,27.8903,-94.0367,1017.44,11111222 
TABS,ioos:station:wmo:42046:1,2013-11-05T17:30:00Z,27.8903,-94.0367,1017.17,11111222 
TABS,ioos:station:wmo:42046:1,2013-11-05T18:00:00Z,27.8903,-94.0367,1016.74,11111222 
TABS,ioos:station:wmo:42046:1,2013-11-05T18:30:00Z,27.8903,-94.0367,1016.33,11111222 
TABS,ioos:station:wmo:42046:1,2013-11-05T19:00:00Z,27.8903,-94.0367,1016.05,11111222 
TABS,ioos:station:wmo:42046:1,2013-11-05T19:30:00Z,27.8903,-94.0367,1015.81,11111222 
TABS,ioos:station:wmo:42046:1,2013-11-05T20:00:00Z,27.8903,-94.0367,1015.53,11111222 
TABS,ioos:station:wmo:42046:1,2013-11-05T20:30:00Z,27.8903,-94.0367,1015.26,11111222 
TABS,ioos:station:wmo:42046:1,2013-11-05T21:00:00Z,27.8903,-94.0367,1015.14,11111222 
TABS,ioos:station:wmo:42046:1,2013-11-05T21:30:00Z,27.8903,-94.0367,1015.17,11111222 
TABS,ioos:station:wmo:42046:1,2013-11-05T22:00:00Z,27.8903,-94.0367,1015.19,11111222 
TABS,ioos:station:wmo:42046:1,2013-11-05T22:30:00Z,27.8903,-94.0367,1015.19,11111222 
TABS,ioos:station:wmo:42046:1,2013-11-05T23:00:00Z,27.8903,-94.0367,1015.37,11111222 
TABS,ioos:station:wmo:42046:1,2013-11-05T23:30:00Z,27.8903,-94.0367,1015.6,11111222 
TABS,ioos:station:wmo:42046:1,2013-11-06T00:00:00Z,27.8903,-94.0367,1015.68,11111222 
TABS,ioos:station:wmo:42046:1,2013-11-06T00:30:00Z,27.8903,-94.0367,1015.92,11111222 
TABS,ioos:station:wmo:42046:1,2013-11-06T01:00:00Z,27.8903,-94.0367,1016.03,11111222 
TABS,ioos:station:wmo:42046:1,2013-11-06T01:30:00Z,27.8903,-94.0367,1016.17,11111222 
TABS,ioos:station:wmo:42046:1,2013-11-06T02:00:00Z,27.8903,-94.0367,1016.37,11111222 
TABS,ioos:station:wmo:42046:1,2013-11-06T02:30:00Z,27.8903,-94.0367,1016.44,11111222 
TABS,ioos:station:wmo:42046:1,2013-11-06T03:00:00Z,27.8903,-94.0367,1016.57,11111222 
TABS,ioos:station:wmo:42046:1,2013-11-06T03:30:00Z,27.8903,-94.0367,1016.54,11111222 
TABS,ioos:station:wmo:42046:1,2013-11-06T04:00:00Z,27.8903,-94.0367,1016.69,11111222 
TABS,ioos:station:wmo:42046:1,2013-11-06T04:30:00Z,27.8903,-94.0367,1016.95,11111222 
TABS,ioos:station:wmo:42046:1,2013-11-06T05:00:00Z,27.8903,-94.0367,1016.6,11111222 
TABS,ioos:station:wmo:42046:1,2013-11-06T05:30:00Z,27.8903,-94.0367,1016.51,11111222 
TABS,ioos:station:wmo:42046:1,2013-11-06T06:00:00Z,27.8903,-94.0367,1016.36,11111222 
TABS,ioos:station:wmo:42046:1,2013-11-06T06:30:00Z,27.8903,-94.0367,1016.3,11111222 
TABS,ioos:station:wmo:42046:1,2013-11-06T07:00:00Z,27.8903,-94.0367,1016.26,11111222 
TABS,ioos:station:wmo:42046:1,2013-11-06T07:30:00Z,27.8903,-94.0367,1016.0,11111222 
TABS,ioos:station:wmo:42046:1,2013-11-06T08:00:00Z,27.8903,-94.0367,1015.74,11111222 
TABS,ioos:station:wmo:42046:1,2013-11-06T08:30:00Z,27.8903,-94.0367,1015.65,11111222 
TABS,ioos:station:wmo:42046:1,2013-11-06T09:00:00Z,27.8903,-94.0367,1015.64,11111222 
TABS,ioos:station:wmo:42046:1,2013-11-06T09:30:00Z,27.8903,-94.0367,1015.55,11111222 
TABS,ioos:station:wmo:42046:1,2013-11-06T10:00:00Z,27.8903,-94.0367,1015.58,11111222 
TABS,ioos:station:wmo:42046:1,2013-11-06T10:30:00Z,27.8903,-94.0367,1015.78,11111222 
TABS,ioos:station:wmo:42046:1,2013-11-06T11:00:00Z,27.8903,-94.0367,1016.06,11111222 
TABS,ioos:station:wmo:42046:1,2013-11-06T11:30:00Z,27.8903,-94.0367,1015.93,11111222 
TABS,ioos:station:wmo:42046:1,2013-11-06T12:00:00Z,27.8903,-94.0367,1016.44,11111222 
TABS,ioos:station:wmo:42046:1,2013-11-06T12:30:00Z,27.8903,-94.0367,1016.56,11111222 
TABS,ioos:station:wmo:42046:1,2013-11-06T13:00:00Z,27.8903,-94.0367,1016.91,11111222 
TABS,ioos:station:wmo:42046:1,2013-11-06T13:30:00Z,27.8903,-94.0367,1017.36,11111222 
TABS,ioos:station:wmo:42046:1,2013-11-06T14:00:00Z,27.8903,-94.0367,1017.59,11111222 
TABS,ioos:station:wmo:42046:1,2013-11-06T14:30:00Z,27.8903,-94.0367,1018.01,11111222 
TABS,ioos:station:wmo:42046:1,2013-11-06T15:00:00Z,27.8903,-94.0367,1018.28,11111222 
TABS,ioos:station:wmo:42046:1,2013-11-06T15:30:00Z,27.8903,-94.0367,1018.61,11111222 
TABS,ioos:station:wmo:42046:1,2013-11-06T16:00:00Z,27.8903,-94.0367,1018.84,11111222 
TABS,ioos:station:wmo:42046:1,2013-11-06T16:30:00Z,27.8903,-94.0367,1018.5,11111222 
TABS,ioos:station:wmo:42046:1,2013-11-06T17:00:00Z,27.8903,-94.0367,1018.26,11111222 
TABS,ioos:station:wmo:42046:1,2013-11-06T17:30:00Z,27.8903,-94.0367,1018.01,11111222 
TABS,ioos:station:wmo:42046:1,2013-11-06T18:00:00Z,27.8903,-94.0367,1017.9,11111222 
TABS,ioos:station:wmo:42046:1,2013-11-06T18:30:00Z,27.8903,-94.0367,1017.56,11111222 